Theta_e
326 330 330 331 331 328 325 324 322 324 326 323 319 317 320 324 317 313 329 344 335 332 336 337 346 361 360 349 347 357 370 374 367 360 358 354 352 356 361 361 362 364 364 365 365 363 361 358 357 359 358 357 357 357 357 357 356 357 360 361 362 364 364 363 362 362 363 362 361 361 361 361 360 359 358 356 356 355 354 353 352 351 352 351 351 349 347
324 327 328 330 328 327 325 325 326 326 325 324 322 322 324 326 325 324 328 341 350 350 340 334 346 365 365 355 347 344 354 365 368 362 357 354 353 356 359 360 361 363 365 366 366 366 365 361 358 359 359 357 358 357 356 357 356 357 360 361 362 363 364 363 362 362 363 362 362 361 361 361 360 359 358 356 355 354 354 353 353 353 353 353 353 350 348
321 324 327 327 325 325 323 323 327 326 325 325 322 324 327 324 327 332 329 333 344 353 351 344 347 356 356 352 349 345 348 358 365 363 356 354 354 355 358 361 360 362 364 365 365 367 366 361 358 358 359 358 358 358 357 356 356 356 358 360 361 362 363 364 362 362 362 362 362 361 361 361 361 360 358 357 355 353 353 353 353 353 354 355 354 352 349
321 324 325 324 325 324 319 319 325 324 322 323 322 324 327 324 325 330 327 323 330 344 352 346 344 350 352 356 359 356 353 356 359 360 357 355 356 355 358 363 361 360 363 363 363 365 362 359 358 358 359 358 358 358 358 357 356 357 357 359 360 361 362 363 362 362 362 362 362 361 362 361 361 361 359 358 355 354 354 354 353 354 354 355 355 353 351
321 324 325 323 321 318 315 318 325 327 326 326 326 326 328 328 326 325 326 331 340 351 357 349 344 346 347 356 365 359 357 361 360 360 357 354 357 358 358 361 360 357 357 359 361 361 358 357 357 358 359 358 358 358 358 357 357 356 357 358 359 360 361 361 362 362 361 362 362 362 362 361 361 361 360 358 356 355 355 355 355 354 354 355 355 353 351
319 325 326 324 319 314 317 324 328 330 331 329 327 327 328 330 328 325 330 340 345 345 349 350 349 349 345 350 357 355 356 361 363 362 359 354 356 359 360 361 360 358 358 359 359 357 356 357 357 357 358 358 358 358 358 357 358 357 357 357 358 361 361 360 361 361 362 363 362 362 363 362 361 361 360 359 358 356 356 358 357 355 354 355 354 353 351
322 327 326 322 318 319 325 332 333 330 330 331 332 333 333 331 333 333 331 333 338 342 345 346 348 355 358 359 361 357 349 345 348 349 354 358 359 359 361 364 363 363 365 366 365 361 357 358 358 358 358 358 358 358 357 357 356 356 357 356 357 359 359 359 361 361 362 363 362 363 363 362 362 361 360 359 359 357 358 358 357 356 355 354 353 352 351
323 325 323 321 324 330 334 337 334 333 336 336 330 330 336 338 339 342 343 344 349 352 350 347 347 348 351 354 361 363 353 346 343 340 343 355 359 357 360 366 369 370 370 369 370 369 364 362 361 358 357 357 358 357 356 355 355 355 355 355 355 356 357 358 359 360 362 363 363 364 364 364 363 362 361 360 359 359 359 358 358 357 355 353 351 350 349
323 320 320 322 324 327 332 335 336 339 342 344 342 337 341 347 345 345 353 355 355 352 348 351 354 352 353 357 357 352 345 343 345 341 339 347 353 352 355 360 361 363 365 365 365 368 369 367 364 359 357 356 356 356 355 354 354 353 353 353 355 355 355 356 356 358 360 363 364 365 365 365 365 363 363 362 360 360 359 358 357 357 354 351 350 349 347
330 322 319 322 321 320 328 336 339 339 338 345 356 350 345 351 351 348 354 357 356 356 354 354 357 359 364 366 358 346 341 340 338 337 335 332 336 342 347 353 356 356 361 365 364 365 368 368 365 362 358 356 355 355 355 353 353 352 352 353 355 355 355 355 354 356 359 362 365 366 366 366 366 365 364 363 361 361 359 357 357 355 353 351 350 349 346
335 326 319 320 318 322 338 347 339 334 337 342 346 341 340 354 357 351 353 358 358 360 359 357 362 370 371 366 358 351 348 345 338 338 341 337 334 336 336 337 346 354 358 362 363 364 364 365 365 364 360 356 355 354 354 353 353 352 351 353 355 356 355 354 354 356 360 363 365 366 367 367 366 365 364 363 362 360 358 356 355 353 352 352 350 349 347
332 330 325 320 320 333 350 348 335 334 341 344 339 332 337 356 359 352 355 359 359 361 362 361 366 374 374 368 362 356 353 351 346 346 352 354 351 350 348 342 342 349 358 364 366 366 364 363 364 364 362 359 355 354 355 353 353 353 352 352 355 356 356 355 356 358 362 365 366 367 367 367 366 365 364 362 361 359 356 354 353 352 352 351 350 349 347
328 330 330 326 329 348 355 342 337 340 341 341 336 334 347 359 356 354 356 355 357 359 360 364 367 366 364 362 361 357 355 356 355 353 355 357 353 352 355 356 354 355 361 366 368 367 366 365 364 364 364 362 359 356 355 354 354 354 353 352 354 358 359 359 360 362 365 366 367 367 367 366 366 364 363 362 360 358 355 353 351 350 350 349 348 347 346
328 327 334 333 334 348 351 341 342 344 343 343 340 345 357 358 352 354 353 352 356 357 356 361 363 359 356 356 356 357 356 357 358 357 358 362 361 356 355 358 360 363 366 366 365 367 368 367 367 367 366 365 363 360 358 357 355 355 355 355 359 363 365 365 365 366 366 366 366 366 366 365 364 363 362 361 360 358 356 354 352 350 349 348 346 346 346
334 330 336 340 341 345 344 345 354 358 355 354 354 354 355 352 351 354 351 350 354 355 354 357 356 354 356 355 354 356 355 354 356 355 356 360 365 367 368 365 360 363 369 368 364 363 365 365 367 369 368 368 366 364 363 361 358 359 362 364 366 368 368 367 367 367 366 366 365 365 364 364 363 362 361 360 360 359 357 355 353 351 349 347 345 345 345
341 336 336 340 342 345 342 345 356 359 356 356 356 353 351 350 350 350 349 349 350 351 351 351 349 350 353 352 351 353 353 352 353 353 353 353 352 354 360 360 355 357 364 363 355 353 357 359 361 362 364 367 368 367 367 365 364 368 371 371 371 370 368 367 366 366 365 365 364 364 363 362 361 360 360 359 359 357 355 354 352 349 347 345 345 344 344
342 341 340 340 341 343 345 345 350 351 349 349 348 346 346 347 346 346 346 344 345 346 345 344 345 347 347 347 347 347 348 350 351 351 351 350 349 347 348 350 351 352 355 354 349 348 352 356 357 359 358 357 359 365 369 371 371 371 369 367 366 365 364 364 365 364 364 363 363 362 361 360 359 357 357 356 355 353 351 350 349 347 344 344 344 343 343
339 338 341 343 341 340 342 344 345 346 344 343 342 341 341 341 341 341 341 341 342 342 341 341 343 343 342 343 343 343 345 347 349 350 350 349 349 348 347 347 348 347 347 350 350 349 349 351 354 357 356 352 350 353 359 363 363 359 355 353 353 354 355 357 358 359 358 357 356 356 355 355 356 354 352 352 350 349 348 347 346 345 344 343 343 342 341
340 340 343 344 342 339 340 344 343 342 340 339 339 340 340 339 338 338 338 340 340 340 339 340 340 339 340 341 341 342 344 345 346 348 350 350 350 350 348 347 347 345 346 352 354 349 346 349 352 353 352 351 349 348 350 353 354 352 350 349 349 350 352 352 352 352 351 352 353 353 353 353 353 351 349 348 347 347 346 345 344 343 342 342 342 340 340
341 343 345 343 341 340 339 341 341 339 338 336 336 336 336 335 334 333 333 335 336 337 338 338 338 338 338 338 339 340 340 342 343 345 347 350 350 349 347 347 348 347 347 351 352 348 346 349 352 351 349 349 348 348 348 347 347 348 348 348 349 349 350 351 351 351 351 351 352 352 351 351 351 350 349 347 345 344 344 343 342 341 340 340 339 339 339
340 343 345 344 344 344 340 338 337 336 336 334 333 332 331 330 330 329 329 330 331 332 334 335 336 337 338 338 339 339 338 339 340 341 346 350 348 346 346 345 346 348 348 348 350 349 348 349 351 352 349 346 346 347 348 347 348 347 346 348 351 351 352 353 353 352 352 352 351 349 348 348 347 347 347 345 343 342 342 342 341 340 339 339 338 338 338
341 343 342 341 343 345 341 336 334 333 332 331 330 330 329 328 329 329 329 330 329 329 330 331 333 336 338 338 338 339 340 341 340 340 345 350 349 347 347 346 345 346 348 348 349 349 348 348 351 352 348 343 343 345 344 345 347 348 349 351 354 354 355 354 353 353 352 349 346 344 343 342 341 340 341 342 341 339 340 341 341 339 339 338 337 337 337
338 339 338 337 340 342 340 336 334 332 330 330 329 329 328 328 329 329 330 330 330 329 329 329 330 332 335 336 337 338 339 340 341 340 342 347 350 348 347 348 348 347 346 348 350 350 348 349 350 352 349 344 343 344 343 343 346 349 351 352 353 354 354 353 352 352 350 345 342 340 339 339 339 337 336 337 337 337 339 340 340 339 339 338 337 337 336
334 334 335 337 339 339 337 334 333 333 332 332 331 330 330 329 329 330 329 329 329 329 329 329 329 331 332 333 335 337 338 339 341 340 338 341 345 346 345 346 348 347 346 346 346 347 348 349 350 353 352 350 349 349 348 348 350 352 352 352 352 353 352 351 351 351 348 343 340 338 337 337 337 335 332 330 330 332 335 337 338 338 337 336 336 336 335
333 334 334 336 338 337 335 335 334 333 333 333 333 332 332 331 330 330 329 329 329 329 330 331 330 330 331 332 333 335 337 338 338 337 336 337 339 342 343 344 345 346 347 346 344 345 346 348 351 354 354 353 352 353 353 353 352 352 352 352 352 351 350 350 350 349 346 343 340 338 337 336 336 335 333 329 326 326 328 332 334 335 335 335 334 334 334
332 333 334 335 335 335 337 337 335 332 331 331 332 332 332 332 331 330 329 329 328 328 330 332 332 330 329 331 332 333 335 335 334 333 334 335 336 338 341 342 341 342 344 344 344 345 344 346 351 355 355 354 354 354 354 354 353 352 352 351 350 350 350 349 348 347 346 343 341 339 338 337 335 334 332 330 328 326 326 328 330 331 332 333 333 333 333
332 333 335 336 335 334 335 335 333 331 329 329 329 328 329 330 330 329 328 328 328 328 329 330 332 331 330 329 330 331 332 333 333 332 333 336 336 337 339 341 341 341 343 345 347 348 347 348 350 352 354 354 354 353 353 353 352 352 351 351 350 349 349 348 347 347 346 344 342 341 339 337 337 335 333 332 332 331 330 330 329 328 330 331 331 332 332
331 332 334 335 334 333 331 330 329 329 329 329 329 328 327 328 328 327 327 328 328 329 329 328 330 333 333 331 331 331 332 333 335 334 334 336 337 336 337 340 341 338 339 344 349 351 351 351 351 352 353 354 353 353 353 353 352 351 350 350 350 349 348 348 347 346 346 344 342 342 340 339 338 337 335 334 333 333 333 332 330 328 328 329 330 330 330
330 330 331 332 331 330 330 328 327 328 328 328 329 328 326 327 327 327 328 328 329 330 330 330 330 332 333 333 334 335 334 335 336 337 335 335 336 335 336 339 340 338 338 343 348 349 351 352 352 352 353 354 354 354 353 352 351 350 349 350 349 348 348 347 346 346 346 344 343 342 341 340 339 339 337 335 335 334 334 332 330 328 327 327 328 328 329
330 331 330 330 329 328 328 327 327 327 327 327 329 329 328 327 328 329 329 329 329 330 330 331 330 330 332 333 334 336 335 334 334 335 334 334 335 334 333 335 339 341 341 343 346 348 348 348 349 349 351 352 353 353 352 351 350 348 348 349 348 347 347 347 346 345 345 344 343 343 341 341 340 340 339 337 335 335 334 332 330 329 327 326 326 327 328
330 331 330 329 328 328 328 329 328 327 328 328 328 329 329 329 329 330 330 330 331 331 331 331 331 331 332 332 332 334 334 333 333 333 334 334 335 334 332 332 335 339 340 341 343 346 348 347 346 347 347 348 349 351 350 349 347 346 347 348 347 347 346 346 345 344 344 343 343 342 342 341 341 340 339 338 336 335 334 332 330 329 327 324 324 325 327
327 329 329 329 329 329 329 329 328 328 328 328 328 328 329 329 330 330 330 331 332 333 334 333 333 332 331 330 330 332 333 333 333 334 334 334 334 334 334 332 330 331 336 338 340 344 346 345 345 347 346 345 346 347 348 347 346 346 347 348 347 346 345 345 344 343 343 343 342 341 341 341 340 340 340 338 336 335 333 331 329 327 325 323 323 324 326
327 329 329 330 330 330 330 329 329 328 328 328 328 329 329 328 329 330 331 331 331 332 334 334 332 330 330 329 330 331 332 334 335 335 336 335 332 331 333 333 328 328 336 340 341 343 344 342 341 344 345 344 343 343 343 345 345 345 345 345 344 342 341 342 342 341 341 341 341 341 341 340 339 339 339 337 336 335 333 331 329 327 325 324 324 324 324
327 327 328 329 330 330 330 330 328 328 328 327 328 329 328 328 329 330 330 331 331 332 333 332 330 329 329 329 330 331 333 336 338 338 338 338 334 331 333 334 333 334 338 339 339 340 342 341 340 341 343 343 342 340 340 340 341 341 341 341 339 338 337 338 339 340 340 338 337 337 339 339 338 336 336 335 335 335 333 332 330 328 327 327 326 325 324
325 325 326 327 327 328 329 329 329 328 327 327 327 327 328 329 329 330 330 331 331 331 330 329 329 329 329 329 331 332 333 336 337 337 337 338 337 336 336 337 337 337 338 337 337 339 340 340 340 340 339 339 339 338 337 336 337 338 338 338 337 337 336 336 337 337 337 335 333 333 335 336 336 334 334 334 335 334 333 332 331 330 329 329 328 326 325
326 326 326 327 326 326 327 328 329 328 328 328 328 328 329 329 329 330 331 330 329 328 328 328 329 329 329 331 332 332 333 334 335 335 336 336 336 336 335 336 336 337 337 337 339 339 339 338 338 337 336 335 336 335 335 334 333 334 335 335 335 334 333 333 335 334 333 333 332 331 332 333 334 333 333 334 334 334 333 332 332 331 331 330 329 326 324
325 325 326 326 326 326 326 327 328 328 329 329 328 329 329 330 329 329 328 328 328 328 328 329 329 329 329 330 330 331 332 333 334 335 335 334 334 333 334 334 334 335 335 337 338 338 338 338 336 335 334 334 335 335 334 332 331 331 331 332 332 332 332 333 333 333 332 333 334 333 332 332 332 332 332 333 333 332 332 333 333 332 331 331 330 327 325
323 324 325 325 326 326 326 326 327 327 327 328 328 329 329 329 328 327 327 328 329 329 329 328 329 330 330 330 330 331 332 332 333 333 333 333 332 332 332 332 333 333 334 336 336 335 335 335 334 333 333 333 334 334 333 332 331 331 330 329 330 331 332 333 334 333 333 334 334 333 332 331 331 331 331 331 330 330 331 332 332 331 331 330 330 328 326
324 324 325 325 325 325 325 325 326 326 326 327 328 328 328 327 326 326 327 328 329 329 329 329 329 330 330 330 330 331 331 331 332 333 333 332 331 331 331 331 331 332 333 334 335 333 333 333 332 331 331 331 332 332 332 331 331 331 330 330 330 331 332 332 332 332 332 332 332 331 331 331 332 331 330 330 329 329 329 330 330 330 330 329 329 328 327
325 325 325 325 325 325 325 326 326 325 325 326 326 326 326 325 325 326 327 328 328 328 328 328 328 329 330 330 330 330 331 330 330 330 331 331 330 330 330 331 331 330 331 332 333 332 332 332 331 330 330 330 330 330 329 329 329 329 329 329 329 330 330 330 331 332 332 330 329 328 328 329 331 330 329 329 329 328 329 329 329 330 330 329 329 328 327
326 325 325 325 325 325 325 326 326 324 324 324 324 324 324 325 325 326 327 327 327 327 327 328 328 328 329 329 329 330 330 329 329 329 329 330 329 329 330 331 331 330 330 330 329 329 329 330 330 330 329 329 329 329 328 328 328 327 328 329 328 328 328 328 329 330 330 328 327 327 327 327 329 329 328 328 328 329 328 328 328 328 328 328 328 328 327
326 325 325 326 326 326 325 325 325 324 323 323 323 323 323 323 324 324 325 326 326 327 327 327 328 328 327 327 328 329 329 328 327 327 328 328 329 329 330 331 329 328 328 327 325 325 325 325 326 327 328 329 330 329 329 329 328 327 327 328 328 328 327 327 327 328 328 328 328 327 327 327 328 328 328 328 328 328 328 328 327 327 326 326 327 327 326
325 325 326 327 327 326 324 324 324 324 323 323 323 323 323 322 322 322 323 323 325 326 327 326 326 326 326 326 327 327 327 327 327 327 326 325 325 327 328 328 327 326 326 324 322 321 320 320 320 321 323 326 327 327 326 328 329 327 326 327 328 328 327 327 327 327 327 327 328 327 327 328 328 328 327 327 327 327 327 327 327 326 326 325 325 325 325
324 324 325 326 326 325 324 323 324 325 325 324 323 322 322 322 321 322 322 321 321 323 325 325 325 324 325 326 326 326 326 326 326 326 326 325 324 324 324 324 325 325 324 321 318 317 317 316 316 318 320 321 322 322 323 325 327 327 326 327 327 327 327 326 327 327 327 327 328 328 328 328 328 327 327 326 326 326 326 326 326 325 326 325 324 323 322
323 322 322 323 324 324 323 323 324 324 323 322 321 321 321 321 320 320 321 321 321 321 322 323 323 322 323 324 325 326 325 324 324 324 325 326 325 323 321 320 322 324 324 321 317 315 315 315 315 315 317 317 318 320 321 322 322 324 324 324 325 324 324 323 324 326 327 327 327 327 327 326 326 326 325 324 324 324 324 324 324 324 324 323 320 318 317
323 322 322 322 322 322 321 321 321 321 320 321 321 321 321 320 319 318 318 320 321 320 320 320 321 321 320 320 321 322 322 321 320 321 323 324 324 322 320 319 320 323 324 322 319 317 316 316 315 315 315 315 315 317 319 321 320 320 320 320 320 320 320 319 320 322 323 324 325 326 326 325 325 324 324 323 322 322 321 321 321 321 320 318 316 315 315
321 320 320 321 321 321 320 319 319 319 320 322 323 322 320 319 319 318 317 318 319 319 318 317 318 318 318 317 317 318 319 318 318 319 320 321 322 322 320 320 320 321 322 322 322 320 318 316 316 316 316 315 314 315 318 320 321 320 320 319 319 318 318 318 318 318 319 320 321 322 323 322 322 322 321 320 319 318 318 318 317 317 316 315 315 315 315
320 320 320 320 319 319 319 319 319 320 321 322 321 320 319 318 318 317 317 317 317 317 317 317 317 317 316 316 316 317 317 318 318 318 317 317 319 320 319 319 319 320 320 321 323 322 319 317 317 317 316 316 316 318 319 320 320 320 320 320 319 318 318 318 318 318 318 318 318 319 319 319 319 319 318 318 317 317 317 316 316 315 315 315 315 315 315
320 320 320 319 319 318 318 319 320 321 321 320 318 318 318 318 317 317 317 317 317 316 317 317 316 316 316 316 315 315 316 317 317 317 316 316 316 317 317 317 317 317 318 319 322 322 320 318 318 317 317 318 319 320 320 320 319 319 320 320 320 319 318 318 317 317 317 317 317 318 318 318 317 317 317 317 317 317 316 316 316 315 315 315 315 314 314
319 319 319 318 317 316 315 316 318 319 319 318 317 317 317 317 317 317 317 316 316 316 316 316 316 315 316 316 315 315 316 316 316 316 316 315 315 316 317 316 316 316 317 318 319 320 320 319 319 319 319 319 320 320 320 319 319 320 319 319 319 319 318 318 317 317 317 316 317 317 317 317 317 317 316 316 316 316 316 316 315 315 315 314 314 314 314
318 318 317 316 314 312 311 312 313 315 316 315 316 316 317 317 317 317 316 316 316 316 316 316 316 316 315 315 314 315 316 316 315 315 315 315 315 316 316 315 315 316 316 317 317 316 316 318 320 320 320 319 319 319 319 319 320 320 319 318 318 318 318 318 318 317 317 317 317 317 316 316 316 316 316 316 316 316 316 315 315 315 315 315 314 314 314
314 314 313 312 310 310 310 309 310 311 311 311 313 315 315 314 314 314 314 315 315 315 315 315 316 315 315 314 314 314 314 313 313 312 312 312 313 315 315 314 313 314 314 315 315 314 313 314 316 317 317 318 318 319 319 320 320 319 318 318 318 318 318 318 318 318 317 317 317 317 317 317 316 316 316 315 315 315 315 315 315 315 315 315 314 314 314
Wind_Speed
18 15 12 12 13 12 13 16 18 19 19 17 15 15 14 9 7 9 8 6 7 11 11 10 9 6 6 9 9 8 8 7 6 7 12 14 15 14 13 14 16 16 16 15 15 14 15 18 21 23 25 29 31 33 35 37 37 37 38 38 38 38 39 41 42 43 44 44 44 43 43 43 43 42 42 41 39 38 39 40 39 38 37 37 36 36 37
18 20 18 16 15 14 13 15 17 17 19 21 20 16 12 11 10 11 9 9 9 8 9 11 8 7 6 5 6 8 8 10 9 9 11 13 14 14 14 15 16 16 16 15 14 14 14 15 18 22 25 29 32 34 36 38 38 38 39 40 39 39 39 42 44 44 44 43 43 43 43 44 44 42 40 39 38 38 39 40 39 36 34 34 34 35 35
14 19 20 19 18 17 14 12 16 18 18 20 20 17 12 9 8 9 10 9 8 7 7 8 6 5 6 3 3 6 7 9 12 10 11 12 13 12 12 12 13 13 14 14 14 14 13 15 19 23 26 30 33 34 36 38 38 39 40 40 41 40 41 42 43 43 43 43 42 43 43 43 42 40 39 38 37 37 38 39 38 35 33 32 33 34 34
6 13 19 21 20 18 17 15 15 18 16 14 13 14 14 12 10 8 8 9 8 7 6 5 6 4 6 6 6 6 5 6 11 12 12 12 14 15 15 14 13 14 15 15 15 15 15 17 22 25 28 30 32 33 36 39 40 40 40 41 41 42 42 42 42 43 43 43 43 43 43 41 40 39 38 37 37 35 34 35 36 34 32 33 33 33 33
4 7 15 22 19 15 16 17 13 10 10 10 11 11 13 16 13 7 5 6 6 5 6 6 7 7 6 7 6 6 5 4 6 10 12 12 11 13 14 15 16 16 15 15 16 16 17 20 26 30 32 31 32 36 39 41 40 39 39 40 41 41 42 42 43 43 43 43 42 42 41 40 38 38 37 36 37 36 33 32 32 32 32 32 32 32 32
5 7 9 12 14 13 12 11 9 9 9 10 10 9 9 11 11 9 8 8 6 4 5 7 8 9 8 8 8 7 7 6 5 6 9 10 10 12 15 16 17 16 14 13 15 18 22 26 31 35 35 35 38 40 41 40 40 40 40 39 39 40 42 44 44 45 44 43 42 41 40 39 37 36 37 37 37 35 32 29 29 29 29 29 30 31 32
4 4 4 5 9 9 6 6 8 12 13 11 9 9 7 4 2 5 9 10 6 2 1 3 3 4 7 6 7 8 8 8 9 9 9 9 11 14 16 16 16 17 17 15 15 17 23 29 31 33 34 36 37 38 38 38 39 41 40 39 39 41 43 44 45 45 44 44 43 41 39 38 37 36 36 35 34 32 30 28 28 27 27 28 30 31 31
4 4 4 5 5 2 3 3 7 7 7 7 5 5 5 3 7 5 1 1 2 6 7 5 4 3 3 2 2 5 6 7 9 10 10 9 9 11 14 15 15 16 17 17 18 21 25 29 29 30 33 36 35 34 36 37 39 41 41 38 38 40 43 45 46 46 46 44 42 39 38 37 37 36 35 34 32 30 28 28 28 29 28 29 29 30 31
5 5 4 3 3 3 4 4 3 3 3 2 3 2 2 4 7 8 6 7 8 8 8 7 7 7 6 6 5 5 4 3 4 6 7 7 7 8 10 12 15 17 19 21 23 25 26 27 28 30 33 35 34 32 34 36 37 39 39 37 37 40 43 46 47 47 46 43 40 38 38 38 36 36 35 32 30 29 29 29 29 30 28 26 27 29 31
1 3 3 3 4 5 5 3 1 3 7 9 7 5 3 5 6 8 9 9 9 8 7 8 8 8 8 5 6 7 9 10 8 7 7 7 9 9 9 10 13 17 21 24 25 26 26 26 30 33 34 35 33 31 32 35 36 36 36 37 39 41 43 47 48 47 45 42 39 38 38 37 37 35 33 30 30 31 32 32 31 30 29 27 27 29 31
2 4 2 5 4 3 3 3 2 1 5 9 7 4 3 5 6 8 11 11 9 8 7 8 8 8 5 4 6 8 10 10 8 8 9 10 9 8 8 10 12 16 24 28 29 29 27 27 31 34 35 35 33 30 32 35 34 33 35 38 41 43 45 46 46 44 42 41 40 39 38 37 35 34 31 30 31 32 32 32 30 28 28 28 28 28 29
2 5 1 3 2 1 2 0 1 2 4 9 5 1 2 4 6 9 11 11 9 7 7 8 8 7 3 3 7 9 11 9 7 5 4 4 4 4 2 4 11 19 25 25 23 23 25 30 35 38 37 34 31 29 33 35 33 34 38 43 46 46 44 43 42 42 41 41 40 39 37 36 34 33 32 32 32 32 31 31 29 27 27 27 28 28 28
4 4 2 2 1 1 3 6 7 5 5 8 4 4 2 3 7 8 9 9 8 7 8 7 5 3 2 4 6 9 11 11 10 8 6 6 6 8 10 8 3 16 23 20 18 21 26 30 33 33 32 29 27 31 32 29 31 39 44 45 44 42 39 38 39 40 40 40 40 39 37 36 34 33 33 33 32 31 30 29 28 27 28 28 27 26 26
4 4 2 1 3 4 3 8 10 8 5 4 2 2 3 5 8 9 9 9 7 6 8 7 5 3 3 6 8 11 12 11 12 13 11 10 10 11 16 19 12 4 14 17 19 24 30 35 36 35 32 27 25 28 28 28 36 44 43 40 38 36 36 37 37 38 38 39 39 38 37 37 34 32 32 31 31 29 27 28 29 28 27 26 25 25 25
3 3 3 2 2 6 4 6 6 5 2 3 2 5 6 6 8 8 8 8 6 5 7 7 6 6 7 9 10 11 12 13 13 13 13 12 11 10 11 15 16 11 4 1 0 1 4 12 18 22 25 26 26 23 22 29 38 37 32 33 34 33 33 34 34 36 38 39 38 37 36 36 34 32 30 30 29 29 28 28 28 25 23 24 26 27 25
3 2 2 1 5 9 5 3 2 1 3 3 4 6 5 5 6 7 7 7 7 6 8 8 8 9 10 11 11 11 12 13 12 12 13 14 14 12 11 12 14 14 10 8 11 18 20 16 11 9 9 9 14 21 26 32 34 29 29 32 32 32 33 33 34 35 36 37 37 37 36 36 34 32 32 31 29 28 28 27 26 25 25 26 27 26 24
1 3 4 6 11 13 8 4 7 6 7 8 9 9 7 5 5 5 6 6 7 8 9 10 10 10 10 10 11 11 10 10 10 10 11 11 11 12 13 14 15 12 11 10 12 16 21 22 17 15 20 22 18 14 16 22 21 20 23 23 23 25 27 29 31 33 34 35 36 36 36 36 35 33 32 31 28 26 27 27 27 26 26 26 26 25 24
4 4 2 6 12 16 13 2 9 11 9 9 10 10 9 7 6 6 7 7 8 9 9 11 10 9 8 9 10 9 9 9 9 9 9 9 10 10 11 13 15 11 11 12 11 13 18 24 23 20 23 27 24 19 8 21 31 31 30 27 24 22 21 22 23 25 26 27 28 30 32 33 33 32 31 30 27 25 26 26 25 25 25 24 24 25 25
4 3 4 6 9 15 16 6 8 13 12 11 10 9 8 8 7 8 9 9 9 9 10 11 10 8 9 9 8 8 8 8 9 9 9 9 9 9 9 11 12 11 9 9 10 11 14 19 24 26 28 30 26 20 17 23 35 41 41 35 28 23 21 21 22 23 24 25 25 26 27 28 28 28 28 28 26 24 23 23 22 23 23 22 23 24 24
2 4 5 5 5 11 16 10 3 11 12 13 13 11 9 10 10 11 11 10 9 9 9 9 9 10 10 10 8 8 7 7 7 7 7 7 8 9 11 13 13 10 7 7 9 11 13 17 23 28 29 29 25 21 20 21 26 34 39 39 34 30 26 25 26 27 28 28 27 26 26 26 27 27 27 27 25 23 22 22 22 22 21 21 22 23 23
4 4 5 6 6 8 13 14 8 8 11 13 14 12 12 13 12 12 12 11 10 10 10 9 9 10 9 8 8 8 7 7 7 7 6 5 6 8 11 14 15 13 9 8 11 13 14 17 21 25 27 26 22 19 19 19 18 21 26 31 33 33 31 28 28 29 29 28 28 28 28 29 28 26 26 27 26 24 22 22 22 22 21 20 20 20 20
2 1 4 6 5 4 7 12 11 10 10 12 14 13 13 13 11 10 12 11 11 12 11 10 9 9 8 7 7 7 6 6 7 8 7 4 4 7 9 11 13 13 11 9 10 12 16 18 20 23 26 26 21 14 12 14 17 20 22 22 24 28 29 27 27 28 27 26 27 29 31 31 29 25 23 23 24 23 22 22 22 21 19 18 18 17 17
4 5 5 5 3 3 5 9 10 9 7 10 13 13 12 12 10 10 10 10 10 11 10 10 10 9 8 8 8 8 7 7 7 8 9 8 6 8 9 9 8 10 11 12 10 7 12 16 18 21 25 26 23 19 18 18 21 25 25 21 20 23 25 26 26 27 25 25 26 28 30 31 31 28 25 23 21 21 22 23 23 21 19 17 15 15 16
6 7 6 3 2 1 4 7 8 8 6 7 11 12 11 11 10 10 11 10 10 9 9 9 9 9 9 9 9 8 9 9 8 9 11 13 12 10 11 10 9 8 11 12 12 9 6 10 12 16 23 27 26 26 27 27 26 26 26 23 21 21 22 25 26 25 24 25 26 26 27 28 30 31 30 26 22 21 22 23 23 22 20 18 15 14 13
7 7 4 2 2 3 1 4 6 6 6 6 9 10 10 10 10 10 10 10 9 8 8 8 8 9 10 9 9 9 8 9 11 12 12 13 12 10 11 12 12 11 13 14 11 7 3 6 10 16 23 27 28 28 29 28 25 24 23 22 22 22 24 24 24 23 23 24 24 24 25 26 27 29 30 27 23 21 21 21 21 21 20 18 16 14 11
7 7 3 4 4 2 0 2 3 5 5 5 7 8 10 11 12 11 10 9 9 8 8 7 7 9 11 10 9 9 9 11 14 15 13 10 9 10 12 13 15 17 16 11 8 7 6 10 15 19 22 25 26 27 26 24 22 21 21 22 23 24 25 24 23 24 24 24 25 24 24 25 25 25 25 26 25 24 22 19 18 17 17 16 15 13 12
5 3 3 8 6 2 2 3 0 3 5 5 7 8 8 9 10 10 10 9 9 9 9 8 7 8 10 10 10 10 11 13 14 14 12 11 13 16 17 15 17 20 18 11 5 9 11 13 17 19 19 21 25 26 25 22 21 22 23 25 25 26 25 23 23 24 24 25 26 25 24 25 25 23 24 26 27 26 24 20 18 16 15 15 14 12 12
1 1 3 4 5 4 4 2 1 1 4 6 6 6 6 7 8 9 9 9 8 8 8 10 9 7 7 8 9 9 10 11 11 10 11 13 17 22 23 19 16 16 17 18 15 15 14 14 17 18 17 18 22 24 23 21 22 24 27 27 27 27 25 22 21 23 23 25 27 26 26 27 26 25 26 27 26 25 23 21 20 18 16 15 15 14 14
3 6 7 6 4 3 2 1 2 4 5 5 5 5 5 7 9 9 8 7 6 7 7 8 9 8 7 7 7 7 7 8 8 8 11 15 19 22 25 21 17 15 15 18 19 18 17 16 16 16 14 15 18 20 21 21 23 26 28 28 27 26 24 21 21 23 24 26 27 27 27 28 27 26 26 26 26 24 22 20 19 19 18 17 16 16 17
3 6 8 7 4 3 2 2 3 5 5 5 6 6 6 7 8 8 6 6 6 7 7 6 7 8 8 7 7 6 6 8 10 10 12 16 18 20 23 22 18 13 13 15 14 13 14 14 14 14 14 14 14 15 17 19 22 24 24 24 24 25 24 22 22 23 23 24 26 26 26 26 25 24 24 24 24 23 22 20 19 19 18 17 18 19 20
8 8 6 6 6 5 3 2 3 5 5 5 6 6 6 6 7 6 6 6 6 6 7 7 7 7 7 8 9 8 7 10 13 14 15 17 17 17 20 20 16 10 10 14 15 10 8 10 12 12 13 14 14 15 15 17 20 21 19 18 20 23 22 21 22 23 23 24 25 25 24 25 23 22 22 22 22 22 21 20 19 18 18 18 18 20 22
12 10 7 4 4 4 4 4 4 4 4 4 6 6 5 5 5 5 4 5 5 6 6 7 7 7 7 10 12 11 9 10 12 14 15 16 17 16 16 15 15 14 15 17 17 12 7 9 10 10 11 13 14 15 16 17 19 19 18 18 20 22 22 21 22 23 23 24 25 23 22 21 21 20 20 20 21 21 21 20 20 19 19 20 19 21 23
9 9 6 5 4 4 4 3 4 4 5 4 4 3 3 3 3 3 3 4 4 4 4 5 5 6 8 9 10 9 9 10 10 10 11 12 14 15 13 11 12 14 15 17 16 13 10 8 6 6 10 12 13 14 15 16 17 17 17 16 15 15 15 17 19 19 18 16 17 20 21 20 18 18 19 19 21 22 21 20 20 20 20 19 20 21 23
5 5 5 4 4 4 3 2 2 4 5 4 4 3 3 3 3 3 3 3 3 3 4 3 3 3 5 9 10 8 7 7 6 6 7 10 12 12 10 8 9 13 17 19 19 16 13 9 5 4 8 10 10 11 13 14 15 14 13 13 13 13 14 16 17 18 17 12 7 9 15 17 17 17 18 19 23 24 23 21 21 20 19 18 18 20 21
2 3 4 4 3 4 4 4 3 3 5 5 5 4 3 3 3 3 3 3 3 2 3 5 5 6 7 6 7 6 6 6 5 6 8 11 13 13 12 11 12 15 18 21 20 16 14 12 9 8 10 11 11 12 13 14 16 17 17 18 19 18 17 17 17 19 21 17 8 5 7 11 14 15 16 20 23 25 24 23 22 21 20 19 18 19 21
2 3 3 3 4 5 6 5 5 5 5 5 5 5 5 5 5 5 5 6 6 4 3 7 11 9 6 5 6 6 7 8 8 9 11 12 14 16 16 16 15 14 14 16 19 17 14 12 11 11 13 14 15 15 13 14 17 20 20 21 21 20 18 16 16 17 18 16 12 10 9 8 10 10 12 18 24 25 24 24 23 22 22 21 20 21 24
3 4 4 4 4 4 4 5 5 5 5 5 6 7 6 6 6 8 10 11 12 11 9 10 10 9 8 10 11 12 11 11 11 12 13 13 14 17 16 15 14 12 9 10 14 17 16 14 13 13 14 14 16 18 16 16 16 15 15 18 20 19 16 15 14 14 14 13 15 17 15 11 12 12 13 17 22 23 23 24 24 22 22 21 21 22 25
4 5 5 5 4 4 5 7 9 8 7 6 7 7 7 7 9 11 12 13 14 15 14 13 12 11 12 13 13 12 12 12 12 13 14 14 15 16 14 12 13 12 9 9 12 16 17 15 15 17 17 16 15 16 17 17 14 10 8 13 16 16 15 14 14 13 10 9 13 18 18 15 15 16 16 16 16 16 19 24 24 22 21 20 20 21 23
4 5 5 5 5 5 6 8 9 9 8 7 5 6 8 11 13 13 12 13 13 14 14 14 13 12 11 10 9 9 12 13 12 12 13 15 16 16 15 15 17 16 13 12 14 16 16 15 14 15 16 15 14 14 14 13 13 13 10 10 15 18 18 17 15 14 11 10 12 15 16 14 13 14 13 12 11 11 15 21 24 24 22 20 19 18 19
5 6 6 6 6 6 6 5 6 8 9 9 8 8 10 12 12 11 10 11 12 13 14 13 11 8 7 7 7 8 12 15 16 15 14 15 16 15 13 15 18 19 18 16 16 17 17 17 15 13 13 12 11 12 13 13 13 15 17 16 15 15 16 16 16 17 16 14 12 11 11 11 11 11 10 10 10 11 13 17 21 22 22 20 19 17 16
5 6 7 7 7 6 5 5 7 9 11 13 13 14 14 14 12 9 9 10 12 14 15 14 11 8 8 9 10 12 14 17 18 18 17 14 12 9 7 9 15 18 17 17 18 18 18 18 17 14 13 11 8 8 10 10 10 10 13 15 17 16 15 15 14 13 12 11 9 8 7 7 9 10 11 11 12 12 11 12 14 16 17 19 19 19 17
7 6 7 7 6 5 5 6 7 9 11 13 14 15 15 15 14 12 11 12 13 14 14 14 13 12 11 12 12 13 15 16 17 18 17 15 12 8 6 9 14 16 15 15 17 18 18 19 19 16 15 13 10 7 6 6 4 6 8 8 8 9 11 12 10 7 7 7 7 6 4 3 3 6 8 10 12 13 11 11 12 12 12 14 18 20 20
4 4 4 5 4 4 5 6 6 6 7 10 13 14 13 14 14 14 14 14 14 12 12 12 12 12 13 14 14 13 13 14 14 15 15 16 17 15 13 12 14 15 14 15 15 16 16 17 17 16 14 14 13 12 8 4 3 3 6 4 2 3 5 6 4 2 2 2 2 3 3 2 3 5 7 8 11 14 14 13 14 14 13 13 15 18 19
2 1 3 4 4 3 5 6 7 6 6 8 10 11 11 11 11 11 11 12 13 12 11 10 10 11 11 12 12 11 11 11 12 12 11 12 14 15 16 15 14 13 13 14 15 15 16 16 16 14 13 12 13 15 14 8 2 2 3 4 5 4 3 4 5 6 6 6 6 7 6 5 6 7 7 6 8 12 14 14 14 15 16 17 15 15 16
5 5 4 3 3 3 5 6 5 4 4 7 9 10 10 9 9 9 9 9 10 11 11 10 9 9 10 11 11 10 11 12 13 11 8 6 7 9 11 13 12 11 11 12 14 15 15 15 15 14 12 11 12 16 18 14 5 2 2 3 5 6 3 1 3 7 9 8 7 7 6 4 5 7 8 7 8 10 12 14 15 16 17 15 13 14 15
6 6 5 4 5 7 8 9 9 9 10 11 11 12 13 13 11 11 12 13 13 14 17 16 14 13 16 17 16 13 13 14 16 14 10 7 6 7 9 11 11 11 9 9 11 12 13 13 15 16 15 13 13 14 18 19 13 7 5 6 5 4 3 4 3 1 5 6 7 10 11 9 8 9 9 9 9 9 8 10 12 13 14 15 15 15 14
10 10 11 12 13 14 15 15 16 16 14 10 7 9 15 18 18 18 20 20 18 18 20 21 20 20 21 22 21 17 15 15 16 17 15 11 7 6 7 9 10 9 7 5 6 8 10 11 13 14 15 15 14 13 15 19 19 17 14 14 12 8 6 7 9 8 5 4 4 7 10 10 6 4 4 5 6 7 9 12 14 15 16 15 13 11 9
14 13 14 17 18 18 19 18 15 11 9 9 10 13 16 18 21 23 22 20 19 18 18 19 21 21 21 21 21 20 18 15 13 15 19 19 16 12 13 14 15 14 9 4 1 3 6 8 10 12 13 14 15 15 15 16 17 17 17 17 16 12 9 9 11 12 11 10 8 5 6 7 5 4 3 2 5 8 11 11 11 10 8 7 6 7 8
16 15 16 18 19 19 18 14 10 7 9 13 16 19 19 18 18 19 19 18 18 19 19 19 21 21 20 20 21 21 20 17 14 15 20 24 24 21 20 21 23 23 20 13 6 2 2 4 7 9 10 11 13 15 16 16 15 14 15 16 16 14 11 8 8 8 9 9 9 7 5 3 3 3 3 3 3 7 8 6 6 7 6 4 5 7 9
17 16 16 16 17 19 18 14 10 11 15 16 17 19 20 17 13 13 17 18 17 17 18 19 21 22 22 22 23 24 22 21 20 21 22 23 24 24 25 25 26 27 28 26 20 13 10 9 8 7 9 12 15 16 17 16 15 13 12 12 13 15 14 11 8 8 8 7 6 6 5 5 4 4 5 4 1 6 8 7 6 6 5 3 3 4 5
16 15 16 18 19 21 22 21 19 19 20 20 19 18 18 16 14 14 17 17 14 13 13 14 16 19 21 22 24 25 25 24 25 26 26 25 24 23 25 27 28 27 27 27 26 24 24 22 16 12 13 17 18 18 18 18 17 15 12 11 12 13 13 12 11 10 10 9 8 7 5 4 5 6 5 5 4 2 3 6 7 5 3 1 2 4 4
20 20 21 22 22 21 23 25 25 24 23 23 21 19 18 18 16 16 17 17 15 12 12 11 13 17 21 22 23 24 24 25 25 26 27 27 26 24 24 25 27 27 27 26 25 25 26 26 24 21 21 21 20 19 19 19 19 18 17 15 14 13 13 12 12 11 10 9 9 9 7 5 5 6 6 6 7 6 4 2 2 3 3 3 4 5 6
Wind_Direction
215 219 230 232 237 241 217 196 194 202 212 220 220 220 219 204 202 240 240 185 203 238 242 241 237 218 217 220 195 154 133 118 94 119 150 160 159 156 159 163 163 168 175 180 182 182 181 181 181 180 181 181 180 182 185 187 188 188 188 190 194 195 196 199 202 203 203 204 205 204 204 205 206 207 207 206 206 205 205 207 208 207 207 205 204 203 204
209 217 228 232 238 248 234 207 195 197 207 215 224 232 224 207 214 233 229 207 213 231 235 238 228 187 189 217 190 165 144 128 125 134 146 157 162 160 162 165 164 169 176 178 180 181 178 178 179 178 180 181 181 183 186 188 188 187 187 190 194 195 197 199 202 204 204 204 204 204 204 206 206 206 206 205 205 205 206 208 208 208 207 205 204 203 203
204 208 218 230 238 245 247 225 201 201 209 211 216 226 232 228 224 225 224 223 230 234 224 236 245 188 154 150 182 193 182 145 139 148 152 155 162 162 163 166 169 173 178 179 180 181 181 181 180 180 181 183 184 185 186 188 189 188 188 191 193 196 197 199 201 203 204 204 205 205 205 205 206 205 205 205 205 205 206 207 207 206 205 204 204 205 204
210 204 207 219 232 241 251 249 222 207 209 212 211 210 213 223 230 224 220 224 236 240 220 229 260 227 167 171 186 200 212 164 140 148 161 165 171 174 173 173 177 180 182 185 183 182 186 186 183 184 184 184 185 186 187 190 190 189 189 191 193 196 197 198 200 202 204 204 205 205 205 205 204 204 204 204 204 204 204 204 203 202 203 204 205 205 204
222 224 212 210 214 229 243 244 239 223 209 214 220 209 200 206 214 218 218 219 221 208 183 194 226 224 198 192 187 181 199 190 143 154 171 175 179 185 181 178 184 187 187 187 186 185 188 189 188 189 187 185 187 188 190 191 189 189 191 193 194 195 196 197 200 202 203 204 205 205 205 204 203 202 202 203 203 204 203 200 197 198 201 204 204 204 203
200 228 232 211 201 216 231 231 238 249 240 230 230 228 212 205 210 211 206 213 218 189 171 190 209 219 216 205 200 194 190 193 187 183 183 175 177 193 195 186 185 189 191 191 190 190 191 191 193 193 190 188 190 192 191 190 188 189 193 195 195 195 195 197 200 201 203 204 204 205 204 202 201 200 202 203 204 204 201 195 192 193 196 201 204 204 204
165 188 232 230 213 220 223 198 209 234 244 246 245 249 253 254 252 232 219 218 218 182 150 186 198 252 255 223 199 201 206 211 214 216 216 198 178 184 195 194 189 188 190 192 192 192 194 195 194 194 193 193 193 193 191 189 189 191 193 195 196 195 196 198 199 201 202 203 204 203 200 199 199 200 201 202 203 201 197 191 188 189 195 201 204 203 203
153 165 194 219 230 304 340 219 203 216 246 260 259 265 285 7 59 61 331 286 71 71 61 60 66 27 322 313 227 214 218 223 216 213 217 212 189 182 188 192 195 193 190 190 191 191 194 196 195 193 194 195 194 192 191 190 191 193 194 195 196 196 196 198 200 200 201 202 201 199 196 195 197 198 199 200 198 192 186 185 187 192 199 203 202 201 203
174 179 192 240 274 306 304 275 223 147 121 126 142 150 321 14 71 88 71 41 40 54 57 44 33 40 45 20 335 316 329 311 256 229 214 202 197 199 192 186 191 197 195 191 189 188 189 192 194 194 195 195 193 192 192 192 193 195 195 197 197 197 197 199 200 200 200 199 196 194 193 193 193 196 197 194 188 180 176 178 184 191 197 199 202 204 204
108 147 174 224 248 237 230 244 337 75 101 109 115 107 41 2 32 78 87 67 43 38 45 41 35 42 44 12 322 332 349 344 328 315 293 255 226 218 211 194 184 187 192 193 190 188 188 191 194 195 195 194 192 191 192 194 195 196 197 199 199 199 200 200 200 199 198 195 192 189 189 190 190 191 190 185 179 178 178 177 182 189 192 194 200 204 205
48 86 165 217 217 217 213 186 205 297 93 98 92 62 10 335 3 56 79 76 57 42 35 41 55 58 39 335 310 327 341 341 334 333 323 301 270 243 228 217 204 194 190 190 190 189 189 191 194 196 195 193 191 191 193 195 196 197 199 200 200 202 202 200 198 196 194 190 188 186 185 186 186 184 181 177 177 181 181 180 183 189 192 193 196 199 204
45 85 86 259 196 192 281 238 169 217 104 95 102 193 270 335 13 51 72 75 68 57 49 51 62 68 49 307 305 324 343 348 336 332 352 349 329 320 303 225 211 205 198 192 189 191 192 193 194 195 195 192 190 192 195 196 196 200 202 201 201 203 203 198 193 190 188 185 183 181 180 180 179 177 176 175 176 178 179 180 182 184 187 190 192 195 199
2 71 78 312 30 282 312 17 17 359 65 89 124 200 217 36 48 54 63 72 72 67 67 70 76 74 4 308 318 337 355 2 355 354 12 29 23 5 0 14 134 189 195 191 187 189 193 195 196 196 194 193 192 194 195 196 199 203 204 203 202 200 196 191 186 183 182 179 176 175 175 174 172 173 174 175 174 175 176 177 177 177 182 186 188 189 191
341 30 38 3 328 304 347 40 24 11 51 106 137 83 41 56 71 63 55 61 64 68 77 84 98 90 22 4 7 2 1 4 1 0 6 11 18 16 5 4 16 160 191 194 193 194 196 197 196 195 194 195 197 197 197 199 203 206 205 201 196 192 186 181 177 175 173 172 170 170 171 170 168 170 172 173 174 173 173 175 176 177 179 178 175 173 176
341 352 23 81 309 305 353 49 22 11 68 180 169 71 51 53 70 69 61 53 42 53 72 70 66 60 39 30 28 15 7 10 6 3 6 3 4 17 17 6 9 22 51 156 253 328 230 206 200 200 201 202 199 195 198 204 204 203 199 191 183 178 173 168 165 166 165 164 164 164 166 167 166 165 167 169 171 173 173 175 176 176 173 169 165 164 167
23 330 330 341 310 313 341 63 73 77 111 120 103 86 68 48 56 65 63 47 29 43 64 58 45 43 36 30 29 22 13 13 11 10 15 12 5 3 2 1 15 35 47 36 31 28 21 15 11 355 329 278 228 208 201 202 200 188 179 176 169 161 159 157 156 157 156 156 158 159 160 161 159 159 162 166 168 170 171 170 167 164 164 163 161 161 160
323 270 283 311 319 320 334 71 98 96 87 81 83 88 81 58 50 63 67 53 38 46 62 62 48 39 33 27 28 26 16 12 15 18 21 23 20 9 1 2 14 42 62 53 45 43 34 31 33 25 18 10 338 283 215 180 163 147 143 143 139 137 140 142 144 147 149 150 152 153 154 156 155 155 158 160 160 162 164 162 160 159 160 159 157 156 153
308 275 299 345 340 331 322 347 105 97 90 87 85 86 84 75 65 68 70 66 58 54 60 64 55 40 34 35 30 25 19 14 17 21 24 25 23 19 14 6 5 24 58 62 59 56 45 44 49 51 55 53 29 358 30 113 114 108 100 92 89 95 104 112 122 128 129 132 137 142 147 151 150 150 152 151 151 155 158 159 160 161 160 157 154 152 151
325 321 8 9 344 326 316 309 104 95 90 90 85 82 87 87 78 71 68 66 65 61 61 65 64 50 41 41 35 26 23 18 14 17 22 23 21 23 27 18 11 19 44 56 65 66 55 54 62 66 70 75 69 48 53 92 109 112 110 105 99 97 101 110 118 120 121 126 133 138 141 142 142 142 144 145 145 147 150 153 155 157 157 153 150 151 153
317 300 326 346 335 320 314 310 89 97 94 91 87 85 85 80 72 66 62 58 58 59 56 59 65 59 47 41 37 31 23 13 8 6 7 11 18 23 27 29 31 34 40 51 68 74 67 65 73 78 80 82 82 75 73 86 101 110 117 122 125 126 131 136 137 137 139 142 141 136 133 134 135 136 139 144 143 143 147 151 152 152 154 154 154 156 158
306 289 322 350 354 341 329 327 0 68 89 90 86 83 78 74 71 68 64 57 54 54 50 46 53 56 47 38 37 35 27 16 9 0 352 0 21 30 32 36 41 46 52 61 74 88 95 91 87 88 92 95 95 89 90 101 111 114 120 129 135 138 142 144 143 143 143 141 137 131 128 129 130 132 139 147 148 145 147 154 157 157 160 164 168 169 167
293 319 6 4 356 346 329 329 351 31 65 80 82 78 73 70 68 67 66 62 54 52 48 40 43 48 39 29 31 34 28 17 9 5 4 7 30 42 43 43 43 44 44 48 70 98 115 113 104 102 107 111 114 113 111 120 127 126 125 129 134 137 139 139 138 137 136 134 133 131 129 126 123 121 128 140 146 146 149 155 161 164 166 171 178 181 181
277 294 321 333 338 337 321 324 342 3 35 71 81 80 78 76 70 65 67 65 56 51 44 38 39 40 30 21 24 28 20 9 5 10 17 28 36 36 36 37 37 39 31 16 17 62 106 115 117 123 126 128 135 148 157 157 149 141 138 139 139 136 135 136 136 134 132 131 130 130 130 128 125 122 122 126 135 143 148 155 161 165 167 168 170 177 188
272 280 293 296 264 260 312 332 344 348 3 57 78 80 81 83 78 71 70 66 60 55 48 38 35 34 29 23 22 24 19 13 9 9 18 32 39 34 27 21 13 26 43 34 14 13 72 119 130 128 126 129 138 148 154 157 155 150 147 145 141 134 130 131 133 133 131 132 133 131 131 131 130 129 127 123 123 128 137 149 157 161 162 160 153 155 171
263 275 288 280 227 205 257 340 345 340 351 41 71 78 79 81 80 77 73 69 64 59 51 42 33 30 31 28 22 22 20 15 16 18 21 28 34 36 36 26 9 11 39 53 43 21 45 130 129 115 115 125 136 141 145 149 148 145 143 140 133 130 130 130 132 133 134 136 138 136 135 136 136 138 139 136 128 121 122 132 143 149 151 151 149 149 154
266 273 232 161 168 193 100 31 353 331 344 34 67 73 72 75 76 74 72 70 69 63 55 49 39 33 37 36 27 23 22 18 20 24 23 14 12 25 35 35 28 23 26 43 74 88 102 119 118 114 119 130 136 137 139 142 138 133 132 131 129 132 136 137 137 138 139 143 146 146 144 145 145 146 147 146 139 129 122 122 128 135 140 143 146 151 153
272 270 161 146 144 115 68 83 347 309 343 32 59 63 67 74 76 75 74 69 64 62 58 53 48 43 42 41 35 30 27 22 21 25 23 11 7 13 17 27 41 34 15 5 59 96 102 106 106 108 117 129 136 137 136 135 130 126 127 129 132 137 142 143 144 144 145 149 153 153 151 151 151 150 150 149 147 145 145 143 140 136 136 140 145 150 155
194 95 94 117 126 116 104 114 166 35 25 34 49 58 65 73 74 74 74 69 63 62 58 50 47 46 41 38 38 37 33 27 23 24 20 12 9 8 8 19 46 43 10 357 18 48 68 83 90 95 106 121 131 136 136 133 128 127 131 135 139 144 147 148 149 149 149 150 154 157 157 156 155 155 156 157 157 155 156 156 152 146 144 146 149 151 154
112 92 81 75 69 77 84 54 53 62 48 37 45 53 60 74 77 72 68 67 65 62 56 49 45 38 28 28 34 38 37 30 25 26 24 18 14 11 10 20 44 50 23 10 22 39 53 64 74 83 94 108 120 128 134 135 131 132 138 143 146 148 150 151 152 154 153 152 154 157 159 159 159 159 160 161 160 158 158 159 157 155 155 157 158 155 152
95 82 93 101 93 77 84 67 57 61 55 48 51 48 48 67 79 76 66 63 61 55 49 49 46 36 24 15 15 28 47 45 35 32 29 24 21 18 15 19 32 40 24 12 20 44 59 59 60 72 85 98 111 122 129 132 134 136 139 142 146 151 152 151 154 156 154 152 155 155 155 158 161 160 158 158 159 160 162 162 159 159 162 165 166 164 160
84 70 84 122 143 149 148 133 86 72 62 54 55 54 49 56 71 75 68 61 59 50 36 30 33 33 22 10 7 20 53 59 48 41 33 24 23 25 23 21 23 21 10 5 9 29 67 68 60 68 85 99 113 127 135 136 137 139 136 135 145 154 155 154 157 158 155 156 158 157 156 159 161 159 156 157 158 160 161 159 159 165 169 169 170 171 170
88 80 72 85 116 122 117 116 110 100 89 74 64 57 49 50 61 66 58 52 51 46 37 30 19 2 359 9 14 22 41 51 50 50 42 26 18 21 25 27 26 18 10 8 9 17 49 65 63 80 104 110 114 126 138 140 141 146 150 149 151 156 157 157 158 158 158 159 160 159 160 162 163 164 165 162 159 160 159 156 158 167 171 170 173 178 179
83 87 80 68 63 63 68 83 102 106 102 97 92 86 74 63 61 61 60 59 50 37 40 44 18 348 348 3 11 21 34 37 38 47 46 32 21 15 16 30 40 32 23 21 24 34 54 60 55 96 124 126 121 121 129 138 144 151 158 155 143 135 133 138 145 148 147 147 153 160 165 166 168 171 171 166 162 161 158 157 162 169 170 173 181 187 188
62 82 86 72 50 34 24 23 90 111 108 100 97 96 88 77 70 66 68 71 62 40 30 35 46 58 45 26 16 25 45 42 31 31 32 29 27 19 11 23 49 51 46 40 34 35 50 60 66 108 121 126 128 119 119 131 141 146 148 143 129 115 109 115 128 137 136 132 142 165 166 168 173 175 167 160 159 160 158 159 165 167 166 173 184 190 191
64 75 82 81 61 47 38 24 24 64 88 93 91 87 81 75 71 70 67 56 41 26 17 24 50 85 90 55 26 34 55 52 39 33 28 27 32 40 44 46 47 49 49 44 33 29 42 56 65 82 95 105 113 112 115 123 124 121 124 128 129 123 116 113 123 135 137 136 143 168 159 155 160 160 154 153 155 155 154 158 163 165 166 173 183 187 188
70 60 62 63 55 55 59 54 41 39 46 58 65 66 63 54 46 49 54 44 30 22 41 46 44 49 60 56 44 47 57 60 53 44 37 34 39 49 56 53 45 43 44 38 33 39 53 62 64 74 88 93 88 85 98 116 116 111 113 120 124 127 127 126 132 140 140 140 154 176 176 152 129 125 141 153 153 150 150 155 161 166 170 173 178 182 183
70 66 66 62 51 46 55 65 65 57 48 47 52 53 52 46 42 48 52 46 37 36 47 54 50 46 50 55 54 50 51 56 59 55 52 52 53 54 53 47 40 41 40 32 36 48 63 73 76 79 86 85 75 72 86 107 111 108 114 120 120 124 133 137 138 144 152 158 163 165 162 148 132 134 150 155 150 149 155 160 162 166 172 175 178 181 182
64 61 62 61 57 53 53 55 56 56 57 56 50 42 41 46 49 51 52 48 42 39 40 45 51 55 53 54 56 53 48 50 57 61 61 60 59 57 52 41 33 31 30 39 53 59 65 75 84 84 81 81 79 78 88 99 95 88 121 143 139 135 138 135 128 129 137 138 132 131 133 134 133 135 139 139 136 142 158 164 165 168 171 173 177 181 182
58 55 50 48 55 59 57 54 53 52 56 57 46 37 50 61 61 56 54 54 52 48 44 45 51 55 53 52 52 50 47 47 51 54 57 57 57 55 50 42 38 38 40 51 63 63 60 64 75 78 76 80 84 81 82 87 77 61 70 119 141 144 142 135 126 125 128 122 116 123 136 145 139 126 124 133 138 143 153 160 164 169 171 173 178 182 183
34 40 37 39 52 59 54 50 50 51 55 59 57 52 56 64 66 64 61 58 56 55 53 51 50 53 57 58 56 55 55 54 51 50 53 57 56 53 48 41 40 43 48 53 58 58 57 57 63 68 70 77 88 90 85 79 70 57 53 63 84 107 123 127 127 131 135 137 136 134 135 141 143 141 144 151 150 142 141 149 159 167 172 176 180 182 184
32 45 49 47 50 52 46 43 51 54 55 56 58 58 57 56 57 59 61 61 60 60 59 57 54 53 58 65 70 69 66 63 60 59 60 59 55 50 44 38 39 44 48 51 52 55 60 64 67 70 68 66 76 99 102 88 71 61 60 58 57 63 72 81 90 105 115 123 134 136 122 120 141 156 162 162 158 152 149 153 160 168 174 178 181 186 189
29 39 57 60 53 44 42 45 54 59 59 58 59 61 60 57 55 55 58 61 63 62 61 61 61 61 62 66 70 70 68 66 66 66 64 62 61 61 53 46 46 49 53 56 56 55 58 62 63 64 65 64 63 77 115 131 108 73 71 64 47 49 62 63 55 55 72 91 113 130 124 104 137 160 166 168 168 166 166 170 177 182 185 181 179 182 188
24 353 38 65 62 46 48 57 65 69 68 67 68 67 64 62 61 58 56 57 59 59 58 57 58 61 64 65 64 65 65 65 66 66 64 61 62 64 63 58 54 52 52 55 57 55 53 54 52 51 57 61 55 48 60 116 150 104 93 103 94 83 109 124 128 112 99 104 135 160 172 194 203 193 182 170 166 167 172 181 189 197 201 199 193 193 197
108 33 45 59 56 43 47 55 58 58 61 70 76 78 75 68 61 58 59 63 64 64 64 62 58 59 67 74 75 74 70 62 58 62 63 58 55 58 60 59 56 52 48 48 50 51 48 45 44 44 47 46 37 34 38 52 110 157 158 176 186 180 171 177 184 191 203 207 198 191 192 193 189 188 184 174 172 177 182 189 198 208 216 219 213 202 192
106 88 65 40 33 56 67 69 70 72 66 63 64 67 70 67 58 50 49 54 57 62 71 79 76 65 63 71 80 85 78 67 61 64 69 66 54 51 53 52 51 52 50 45 44 46 45 40 38 39 37 27 22 26 31 35 53 160 186 181 170 165 160 160 192 202 207 203 191 187 190 188 180 181 187 199 209 207 205 210 217 221 219 209 182 153 143
99 92 76 46 35 46 61 70 70 60 48 43 41 42 46 52 55 46 36 35 46 60 67 69 67 62 57 57 62 68 66 59 55 58 68 86 90 70 55 53 57 60 55 43 38 43 46 41 35 34 29 18 13 18 22 23 25 35 41 41 53 72 54 32 33 187 202 201 199 195 190 186 191 196 197 209 228 236 225 210 200 187 172 158 144 134 132
61 56 49 42 38 38 45 52 55 50 43 37 34 33 37 43 49 47 40 39 48 62 66 62 60 60 59 55 53 52 49 46 45 44 46 55 71 64 46 43 45 46 46 42 36 41 47 45 34 27 21 15 11 13 16 15 15 15 17 19 21 24 36 44 42 43 58 93 150 172 171 171 179 185 167 167 181 182 169 158 149 141 137 138 141 145 154
54 52 44 40 39 40 40 43 46 45 38 34 29 20 22 36 50 54 48 42 42 49 55 56 54 54 57 55 49 44 43 45 43 34 29 31 34 34 30 27 21 16 14 9 355 34 53 54 40 27 19 16 14 14 12 9 8 8 9 12 16 25 44 56 48 38 36 42 51 79 124 138 133 108 89 113 147 149 149 148 144 144 152 169 185 194 194
47 46 45 43 40 36 33 35 37 32 28 32 29 20 16 27 46 54 52 45 37 34 38 41 39 39 43 47 43 37 38 44 46 36 30 30 31 30 28 27 26 24 24 26 30 52 78 59 37 26 22 19 14 9 3 360 359 360 2 5 7 7 10 20 30 28 24 25 30 36 43 58 80 69 4 312 222 172 160 150 139 140 150 176 210 218 215
45 42 42 44 40 34 29 26 22 19 22 26 28 24 21 23 32 43 47 45 37 28 26 32 36 37 39 40 35 30 31 36 40 38 35 34 33 32 31 31 32 32 33 35 40 42 35 20 10 13 22 22 15 8 3 360 354 348 347 351 354 355 358 5 13 16 14 9 4 3 3 356 352 2 2 348 257 187 184 179 160 145 139 140 167 189 204
45 42 42 41 38 34 30 24 17 17 19 18 15 19 24 25 23 25 29 32 32 30 27 28 37 46 48 44 38 35 35 36 37 37 35 32 32 34 36 35 34 34 35 37 40 39 35 33 34 37 36 31 24 17 14 12 7 360 358 0 359 359 5 10 7 3 3 359 347 338 331 318 307 308 318 327 327 289 198 181 172 168 174 193 183 190 216
49 46 45 41 35 32 28 22 18 18 16 10 9 19 29 27 22 18 14 10 13 24 28 27 38 51 54 48 42 40 40 40 40 38 35 32 31 33 35 35 34 32 33 34 34 32 32 34 37 36 33 31 30 26 24 24 22 18 18 19 16 12 15 18 13 5 1 358 352 350 356 358 338 319 305 298 301 304 295 255 229 233 231 210 197 209 229